Date String (YYYY-MM-DD hh:mm:ss) UTC,Instrument flags,absolute air pressure of the measurement (hPa),sample flow rate (lpm),inlet stack bypass flow (lpm),air temperature of the measurement (°C),ambient temperature measured by the external sensor (°C),aerosol sample conditioner tube jacket temperature (°C),OPC LED temperature (°C),internal box temperature (°C),relative humidity of the measurement (%),span deviation,mass concentration of particles derived from Lorenz-Mie calculation of OPC scattering (μg/m³),mass concentration of particles derived from Lorenz-Mie calculation of OPC scattering (μg/m³),mass concentration of particles derived from Lorenz-Mie calculation of OPC scattering (μg/m³)
DateTimeUTC,F1_M11,P_M11,Q1_M11,Q2_M11,T1_M11,T2_M11,T3_M11,T4_M11,T5_M11,U1_M11,ZSPAN_M11,X2_M11,X0_M11,X1_M11
2024-02-23 13:00:00,SystemResetWarning,0832.0,5.00,000.00,018.4,017.8,000.0,026.8,020.1,11.0,0000.0,0000.43,0000.57,0000.37
2024-02-23 13:01:00,SystemResetWarning,0832.0,5.01,000.00,018.4,017.8,000.0,026.8,020.1,11.2,0000.0,0000.44,0000.59,0000.37
2024-02-23 13:02:00,SystemResetWarning,0832.0,5.00,000.00,018.4,017.8,000.0,026.8,020.0,11.2,0000.0,0000.42,0000.56,0000.38
2024-02-23 13:03:00,SystemResetWarning,0832.0,5.00,000.00,018.4,017.8,000.0,026.8,020.0,11.6,0000.0,0000.42,0000.57,0000.37
2024-02-23 13:04:00,SystemResetWarning,0832.0,4.99,000.00,018.3,017.8,000.0,026.8,020.0,11.6,0000.0,0000.43,0000.57,0000.37
2024-02-23 13:05:00,SystemResetWarning,0832.0,4.99,000.00,018.3,017.8,000.0,026.8,020.0,11.3,0000.0,0000.43,0000.57,0000.37
2024-02-23 13:06:00,SystemResetWarning,0832.0,4.99,000.00,018.3,017.8,000.0,026.8,020.0,11.5,0000.0,0000.43,0000.57,0000.37
2024-02-23 13:07:00,SystemResetWarning,0832.0,5.01,000.00,018.3,017.8,000.0,026.8,020.0,11.6,0000.0,0000.43,0000.57,0000.38
2024-02-23 13:08:00,SystemResetWarning,0832.0,5.01,000.00,018.3,017.8,000.0,026.8,020.0,11.6,0000.0,0000.44,0000.62,0000.38
2024-02-23 13:09:00,SystemResetWarning,0832.1,4.98,000.00,018.3,017.8,000.0,026.8,020.0,11.8,0000.0,0000.46,0000.78,0000.38
2024-02-23 13:10:00,SystemResetWarning,0832.1,5.00,000.00,018.3,017.7,000.0,026.8,020.0,11.9,0000.0,0000.47,0000.79,0000.39
2024-02-23 13:11:00,SystemResetWarning,0832.0,5.01,000.00,018.3,017.7,000.0,026.8,020.0,11.5,0000.0,0000.47,0000.82,0000.39
2024-02-23 13:12:00,SystemResetWarning,0832.1,5.00,000.00,018.3,017.7,000.0,026.8,020.0,11.4,0000.0,0000.46,0000.80,0000.40
2024-02-23 13:13:00,SystemResetWarning,0832.1,4.99,000.00,018.3,017.7,000.0,026.8,020.0,11.4,0000.0,0000.47,0000.80,0000.40
2024-02-23 13:14:00,SystemResetWarning,0832.1,4.99,000.00,018.3,017.7,000.0,026.8,020.0,11.6,0000.0,0000.48,0000.81,0000.41
2024-02-23 13:15:00,SystemResetWarning,0832.1,5.01,000.00,018.3,017.7,000.0,026.8,020.0,11.8,0000.0,0000.47,0000.80,0000.41
2024-02-23 13:16:00,SystemResetWarning,0832.1,5.00,000.00,018.3,017.7,000.0,026.8,020.0,11.7,0000.0,0000.48,0000.81,0000.42
2024-02-23 13:17:00,SystemResetWarning,0832.0,4.99,000.00,018.3,017.7,000.0,026.8,020.0,11.4,0000.0,0000.49,0000.84,0000.43
2024-02-23 13:18:00,SystemResetWarning,0832.0,5.00,000.00,018.3,017.7,000.0,026.8,020.0,11.4,0000.0,0000.50,0000.86,0000.43
2024-02-23 13:19:00,SystemResetWarning,0832.1,5.01,000.00,018.3,017.7,000.0,026.8,020.0,11.3,0000.0,0000.52,0000.87,0000.43
2024-02-23 13:20:00,SystemResetWarning,0832.1,5.00,000.00,018.3,017.7,000.0,026.8,020.0,11.4,0000.0,0000.52,0000.75,0000.44
2024-02-23 13:21:00,SystemResetWarning,0832.1,5.00,000.00,018.3,017.7,000.0,026.8,020.0,11.7,0000.0,0000.52,0000.74,0000.44
2024-02-23 13:22:00,SystemResetWarning,0832.1,5.00,000.00,018.3,017.7,000.0,026.8,020.0,11.6,0000.0,0000.51,0000.72,0000.44
2024-02-23 13:23:00,SystemResetWarning,0832.1,5.00,000.00,018.3,017.7,000.0,026.8,020.0,11.4,0000.0,0000.52,0000.72,0000.44
2024-02-23 13:24:00,SystemResetWarning,0832.1,5.00,000.00,018.3,017.7,000.0,026.8,020.0,11.5,0000.0,0000.51,0000.71,0000.43
2024-02-23 13:25:00,SystemResetWarning,0832.2,5.00,000.00,018.3,017.6,000.0,026.8,020.0,11.4,0000.0,0000.50,0000.70,0000.42
2024-02-23 13:26:00,SystemResetWarning,0832.2,5.00,000.00,018.3,017.6,000.0,026.8,020.0,11.2,0000.0,0000.50,0000.70,0000.42
2024-02-23 13:27:00,SystemResetWarning,0832.2,5.00,000.00,018.3,017.6,000.0,026.8,020.0,11.3,0000.0,0000.52,0000.77,0000.42
2024-02-23 13:28:00,SystemResetWarning,0832.2,5.00,000.00,018.3,017.6,000.0,026.9,020.0,11.3,0000.0,0000.51,0000.76,0000.42
2024-02-23 13:29:00,SystemResetWarning,0832.1,5.02,000.00,018.3,017.6,000.0,026.9,020.0,11.5,0000.0,0000.50,0000.74,0000.42
2024-02-23 13:30:00,SystemResetWarning,0832.1,5.00,000.00,018.3,017.6,000.0,026.8,020.0,11.5,0000.0,0000.49,0000.92,0000.42
2024-02-23 13:31:00,SystemResetWarning,0832.0,4.99,000.00,018.3,017.6,000.0,026.9,020.0,11.3,0000.0,0000.47,0001.40,0000.42
2024-02-23 13:32:00,SystemResetWarning,0832.1,5.00,000.00,018.3,017.6,000.0,026.9,020.0,11.5,0000.0,0000.46,0001.37,0000.42
2024-02-23 13:33:00,SystemResetWarning,0832.1,5.00,000.00,018.3,017.6,000.0,026.9,020.0,11.9,0000.0,0000.46,0001.36,0000.42
2024-02-23 13:34:00,SystemResetWarning,0832.1,5.00,000.00,018.3,017.6,000.0,026.9,020.0,11.7,0000.0,0000.47,0001.37,0000.42
2024-02-23 13:35:00,SystemResetWarning,0832.1,5.01,000.00,018.3,017.5,000.0,026.9,020.0,11.9,0000.0,0000.47,0001.36,0000.42
2024-02-23 13:36:00,SystemResetWarning,0832.1,5.01,000.00,018.3,017.5,000.0,026.9,020.0,12.1,0000.0,0000.48,0001.37,0000.43
2024-02-23 13:37:00,SystemResetWarning,0832.2,5.00,000.00,018.3,017.5,000.0,026.9,020.0,11.8,0000.0,0000.48,0001.38,0000.44
2024-02-23 13:38:00,SystemResetWarning,0832.2,4.99,000.00,018.3,017.5,000.0,026.9,020.0,11.7,0000.0,0000.47,0001.33,0000.44
2024-02-23 13:39:00,SystemResetWarning,0832.2,4.99,000.00,018.3,017.5,000.0,026.9,020.0,11.8,0000.0,0000.46,0001.31,0000.44
2024-02-23 13:40:00,SystemResetWarning,0832.2,4.99,000.00,018.3,017.5,000.0,026.9,020.0,11.8,0000.0,0000.47,0001.36,0000.44
2024-02-23 13:41:00,SystemResetWarning,0832.3,5.00,000.00,018.3,017.5,000.0,026.9,020.0,11.8,0000.0,0000.47,0001.40,0000.44
2024-02-23 13:42:00,SystemResetWarning,0832.2,5.00,000.00,018.3,017.5,000.0,026.9,020.0,11.4,0000.0,0000.46,0000.68,0000.44
2024-02-23 13:43:00,SystemResetWarning,0832.3,5.02,000.00,018.3,017.5,000.0,026.9,020.0,11.4,0000.0,0000.46,0000.68,0000.44
2024-02-23 13:44:00,SystemResetWarning,0832.3,5.00,000.00,018.3,017.5,000.0,026.9,020.0,11.6,0000.0,0000.47,0000.71,0000.45
2024-02-23 13:45:00,SystemResetWarning,0832.3,4.99,000.00,018.3,017.5,000.0,026.9,020.0,11.8,0000.0,0000.48,0000.73,0000.45
2024-02-23 13:46:00,SystemResetWarning,0832.3,5.01,000.00,018.3,017.5,000.0,026.9,020.0,11.9,0000.0,0000.52,0000.84,0000.46
2024-02-23 13:47:00,SystemResetWarning,0832.4,5.00,000.00,018.3,017.5,000.0,026.9,020.0,11.7,0000.0,0000.52,0000.87,0000.46
2024-02-23 13:48:00,SystemResetWarning,0832.3,4.99,000.00,018.3,017.5,000.0,026.9,020.0,11.4,0000.0,0000.54,0000.91,0000.47
2024-02-23 13:49:00,SystemResetWarning,0832.4,5.00,000.00,018.3,017.5,000.0,026.9,020.0,11.5,0000.0,0000.56,0000.95,0000.47
2024-02-23 13:50:00,SystemResetWarning,0832.4,5.01,000.00,018.3,017.5,000.0,026.9,020.0,11.3,0000.0,0000.56,0000.96,0000.47
2024-02-23 13:51:00,SystemResetWarning,0832.4,5.00,000.00,018.3,017.5,000.0,026.9,020.0,11.3,0000.0,0000.55,0000.92,0000.47
2024-02-23 13:52:00,SystemResetWarning,0832.3,5.01,000.00,018.3,017.6,000.0,026.9,020.1,11.0,0000.0,0000.55,0000.85,0000.47
2024-02-23 13:53:00,SystemResetWarning,0832.4,5.00,000.00,018.5,018.3,000.0,027.0,020.5,11.0,0000.0,0000.58,0000.90,0000.48
2024-02-23 13:54:00,SystemResetWarning,0832.5,4.99,000.00,018.7,019.1,000.0,027.1,020.9,10.9,0000.0,0000.59,0001.01,0000.48
2024-02-23 13:55:00,SystemResetWarning,0832.5,4.99,000.00,018.8,019.1,000.0,027.0,020.9,10.6,0000.0,0000.59,0001.02,0000.47
2024-02-23 13:56:00,SystemResetWarning,0832.5,4.98,000.00,018.8,018.9,000.0,027.0,020.7,10.6,0000.0,0000.62,0001.10,0000.48
2024-02-23 13:57:00,SystemResetWarning,0832.5,5.01,000.00,018.8,018.8,000.0,027.0,020.7,10.6,0000.0,0000.65,0001.19,0000.48
2024-02-23 13:58:00,SystemResetWarning,0832.5,5.00,000.00,018.8,018.6,000.0,027.0,020.6,10.6,0000.0,0000.65,0001.19,0000.48
2024-02-23 13:59:00,SystemResetWarning,0832.5,5.00,000.00,018.8,018.5,000.0,027.0,020.6,10.6,0000.0,0000.65,0001.19,0000.48
